Regional Weather Roundup
Issued by NWS Boston, MA

Current Version | Previous Version | Text Only | Print | Product List | Glossary Off
Versions: 1 2 3 4 5 6 7 8 9 10 11 12 13 14 15 16 17 18 19 20 21 22 23 24 25 26 27 28 29 30 31 32 33 34 35 36 37 38 39 40 41 42 43 44 45 46 47 48 49 50

000
ASUS41 KBOX 261710
RWRBOX

REGIONAL WEATHER ROUNDUP
NATIONAL WEATHER SERVICE TAUNTON MA
100 PM EDT THU MAR 26 2015

NOTE:  "FAIR" INDICATES FEW OR NO CLOUDS BELOW 12,000 FEET WITH NO
SIGNIFICANT WEATHER AND/OR OBSTRUCTIONS TO VISIBILITY.  THE FOLLOWING
OBSERVATION LOCATIONS DO NOT REPORT PRESENT WEATHER...PROVINCETOWN...
SMITHFIELD...BLOCK ISLAND...KEENE...AND OXFORD.

MAZALL-261800-
EASTERN MASSACHUSETTS

CITY           SKY/WX    TMP DP  RH WIND       PRES   REMARKS
BOSTON         CLOUDY    54  45  71 S12       29.81F
BEVERLY        MOSUNNY   52  41  66 SW8       29.79F
LAWRENCE       MOSUNNY   51  42  71 SW6       29.80F
BEDFORD        PTSUNNY   49  41  74 SW9       29.79F
BLUE HILL        N/A     52  45  77 S20G25    29.80F
NORWOOD        CLOUDY    55  45  68 S10       29.82F
MARSHFIELD     PTSUNNY   55  46  71 SW16G28   29.84F
PLYMOUTH       LGT RAIN  47  45  93 S8        29.86F FOG
TAUNTON        LGT RAIN  50  47  89 S8        29.84F FOG
NEW BEDFORD    LGT RAIN  47  46  97 S9        29.85F FOG
$$

MAZALL-261800-
CAPE COD AND THE ISLANDS

CITY           SKY/WX    TMP DP  RH WIND       PRES   REMARKS
FALMOUTH       CLOUDY    48  48 100 S9        29.87F FOG
HYANNIS        LGT RAIN  43  42  97 S8        29.88F VSB 3/4
CHATHAM        LGT RAIN  41  41 100 SW9G18    29.91F VSB 1/2
PROVINCETOWN   CLOUDY    45  41  87 S13       29.86F
NANTUCKET      LGT RAIN  43  42  97 S15       29.91F VSB 1/4
MARTHAS VNYRD  LGT RAIN  44  41  89 SW10      29.89F FOG
$$

MAZALL-261800-
CENTRAL AND WESTERN MASSACHUSETTS

CITY           SKY/WX    TMP DP  RH WIND       PRES   REMARKS
WORCESTER      LGT RAIN  47  41  80 S13       29.80F
FITCHBURG      PTSUNNY   51  41  68 CALM      29.81F
ORANGE         CLOUDY    41  39  93 SE6       29.80F
SPRINGFIELD    CLOUDY    45  42  87 S8        29.79F FOG
WESTFIELD      CLOUDY    44  39  82 S8        29.80F
NORTH ADAMS    CLOUDY    49  39  68 CALM      29.75F
PITTSFIELD     CLOUDY    44  39  82 CALM      29.74F
$$

RIZALL-261800-
RHODE ISLAND

CITY           SKY/WX    TMP DP  RH WIND       PRES   REMARKS
PROVIDENCE     LGT RAIN  50  48  93 S12       29.84F FOG
NEWPORT        LGT RAIN  45  45 100 S9        29.85F FOG
BLOCK ISLAND   CLOUDY    45  41  87 SW8       29.87F VSB 3/4
SMITHFIELD     CLOUDY    50  43  76 SW7       29.83F
WESTERLY       LGT RAIN  43  42  97 S5        29.87F FOG
$$

CTZALL-261800-
CONNECTICUT

CITY           SKY/WX    TMP DP  RH WIND       PRES   REMARKS
BRADLEY INTL   LGT RAIN  45  41  86 S9        29.81F FOG
HARTFORD       CLOUDY    46  43  89 S8        29.82F FOG
BRIDGEPORT     LGT RAIN  40  40 100 E6        29.85F VSB 1
DANBURY        RAIN      46  41  82 S5        29.83F
GROTON         RAIN      43  41  93 S6        29.86F VSB 3/4
NEW HAVEN      LGT RAIN  43  41  93 CALM      29.84F FOG
CHESTER        FOG       46  46 100 S6        29.84F VSB 1/2
MERIDEN        CLOUDY    45  43  93 S6        29.83F FOG
WILLIMANTIC    LGT RAIN  47  45  93 S6        29.83F FOG
OXFORD         FOG       45  39  81 VRB5      29.83F VSB 1
$$

MEZ002-015-021-024-NHZ003-005-008-011-012-014-VTZ005-008-261800-
NORTHERN NEW ENGLAND

CITY           SKY/WX    TMP DP  RH WIND       PRES   REMARKS
PORTLAND ME    PTSUNNY   47  40  76 S13G20    29.78F
BANGOR ME      PTSUNNY   44  36  73 S8        29.76F
CONCORD NH     PTSUNNY   50  38  63 S9        29.79F
MANCHESTER NH  PTSUNNY   54  43  66 S7        29.77F
NASHUA NH      MOSUNNY   55  41  59 VRB5      29.80F
PORTSMOUTH NH  PTSUNNY   52  40  63 SW8       29.78F
JAFFREY NH     CLOUDY    42  39  89 S5        29.78F
KEENE NH       CLOUDY    45  39  81 S6        29.79F
BURLINGTON VT  NOT AVBL
MT. WASHINGTON LGT SNOW  28  23  80 W44         N/A  VSB 1   WCI  10
$$

NYZ052-076-261800-
EASTERN NEW YORK

CITY           SKY/WX    TMP DP  RH WIND       PRES   REMARKS
ALBANY         RAIN      42  38  85 NE3       29.79F FOG
NEW YORK CITY  LGT RAIN  49  46  90 VRB6      29.83F FOG
$$

ANZALL-261800-
MARINE OBSERVATIONS

STATION/POSITION TIME  TEMP    WIND        PRES    VSBY  WAVE
                       AIR SEA DIR/SP/G                  HT/PER
                 (UTC) (F)     (DEG/KT/KT) (MB)    (MI)  (FT/S)
BOSTON BUOY      1650   42 37  150/  6/  8 1010.3F         1/ 5
BUZZARDS BAY     1700          190/ 16/ 17 1011.7F
NANTUCKET SOUND  1650   40 35  200/ 10/ 12 1012.9F         1/ 6
MASS BAY-STELLWA 1604   40 37  220/  8/ 10   N/A    1 5/8  2/ 5
ISLE OF SHOALS   1700   43     180/  9/ 10 1008.6F
S OF BLOCK IS    1608      38                N/A           5/ 7
$$

......................KEY.........................
  SKY/WX - SKY CONDITION/PRESENT WEATHER
  TMP    - TEMPERATURE IN FAHRENHEIT
  DWPT   - DEWPOINT IN FAHRENHEIT
  RH     - RELATIVE HUMIDITY IN PERCENT
  WIND   - DIRECTION AND SPEED IN MPH
  PRES   - MEAN SEA LEVEL PRESSURE IN INCHES OF HG
  WCI    - WIND CHILL INDEX
  VSB    - VISIBILITY IN MILES
  HX     - HEAT INDEX
  TC     - TEMPERATURE IN CELSIUS
  VRB    - VARIABLE WIND DIRECTION
  N/A    - NOT AVAILABLE



USA.gov is the U.S. government's official web portal to all federal, state and local government web resources and services.